Regional Weather Roundup
Issued by NWS

Home | Current Version | Previous Version | Graphics & Text | Print | Product List | Glossary Off
Versions: 1 2 3 4 5 6 7 8 9 10 11 12 13 14 15 16 17 18 19 20 21 22 23 24 25 26 27 28 29 30 31 32 33 34 35 36 37 38 39 40 41 42 43 44 45 46 47 48 49 50

000
ASUS43 KDMX 270607
RWRIA

WEATHER ROUNDUP FOR IOWA
NATIONAL WEATHER SERVICE DES MOINES IA
1200 AM CST THU NOV 27 2014

NOTE: "FAIR" INDICATES FEW OR NO CLOUDS BELOW 12,000 FEET WITH NO
SIGNIFICANT WEATHER AND/OR OBSTRUCTIONS TO VISIBILITY.

* - THESE STATIONS ARE NOT NWS STATIONS...THUS NOT UNDER NWS
QUALITY CONTROL.  THEY ALSO DO NOT REPORT WEATHER SUCH
AS PRECIPITATION OR FOG.

IAZ001>003-012>014-020>022-031>034-043>046-270700-
   NORTHWEST IOWA

CITY           SKY/WX    TMP DP  RH WIND       PRES   REMARKS
CARROLL *      CLOUDY    16  12  86 NW18      30.42R WCI  -1
CHEROKEE *     MOCLDY    10   4  75 NW8       30.46R WCI  -1
DENISON *      CLOUDY    14   7  73 N13G18    30.42S WCI   0
LE MARS *      CLOUDY    12   5  73 N7G13     30.49R WCI   2
ORANGE CITY *  CLEAR     10   0  61 N10       30.44R WCI  -3
SHELDON *      CLEAR      5  -4  66 NW8       30.44R WCI  -8
SIOUX CITY     CLOUDY    17  11  77 N14       30.49R WCI   3
6HR MIN TEMP:  17; 6HR MAX TEMP:  22;

SPENCER        CLEAR      4  -3  73 N10       30.44R WCI -11
6HR MIN TEMP:   1; 6HR MAX TEMP:  18; 6HR PCP: TRACE;

STORM LAKE *   CLOUDY    10   3  72 NW12      30.43R WCI  -4
$$

IAZ055>058-069>071-079>083-090>094-270700-
   SOUTHWEST IOWA

CITY           SKY/WX    TMP DP  RH WIND       PRES   REMARKS
ATLANTIC *     CLOUDY    21  18  86 NW16      30.43R WCI   7
AUDUBON *      CLEAR     19  12  73 NW7       30.41R WCI  10
CLARINDA *     CLOUDY    25  21  86 N12       30.45R WCI  14
COUNCIL BLFS * CLOUDY    21  19  93 NW16      30.43R WCI   7
CRESTON *      CLOUDY    23  21  93 N15       30.39R WCI  10
HARLAN  *      CLOUDY    19  16  86 N14       30.46R WCI   6
LAMONI         CLOUDY    24  20  84 N12       30.37R WCI  13
6HR MIN TEMP:  24; 6HR MAX TEMP:  29; 6HR PCP: TRACE;

RED OAK *      CLOUDY    23  19  86 N15       30.44R WCI  10
SHENANDOAH *   CLOUDY    25  19  80 NW12      30.46R WCI  14
$$

IAZ047>049-059>061-072>074-084-270700-
   CENTRAL IOWA

CITY           SKY/WX    TMP DP  RH WIND       PRES   REMARKS
AMES           CLOUDY    19  14  81 NW14      30.40R WCI   6
6HR MIN TEMP:  19; 6HR MAX TEMP:  27; 6HR PCP: TRACE;

ANKENY *       CLOUDY    21  18  86 NW13G20   30.39R WCI   9
CHARITON *     CLOUDY    25  21  86 NW17      30.35R WCI  11
DES MOINES     FLURRIES  22  17  81 N14       30.39R WCI   9
6HR MIN TEMP:  22; 6HR MAX TEMP:  31; 6HR PCP:  0.02;

GRINNELL*      CLOUDY    25  23  93 NW10      30.34R WCI  15
KNOXVILLE *    CLOUDY    25  21  86 NW21      30.34R WCI  10
MARSHALLTOWN   CLOUDY    22  18  85 NW13      30.35R WCI  10
6HR MIN TEMP:  22; 6HR MAX TEMP:  28; 6HR PCP: TRACE;

PELLA *        CLOUDY    27  24  87 NW17      30.36R WCI  15
PERRY *        CLOUDY    19  18  93 NW10      30.41R WCI   8
$$

IAZ004>006-015-016-023>025-035-036-270700-
   NORTH CENTRAL IOWA

CITY           SKY/WX    TMP DP  RH WIND       PRES   REMARKS
ALGONA *       CLOUDY    10   5  79 NW14G23   30.41R WCI  -5
CLARION *      FLURRIES  12   9  85 NW22G28   30.39R WCI  -7
ESTHERVILLE    PTCLDY     4  -2  76 NW12      30.42R WCI -12
6HR MIN TEMP:   4; 6HR MAX TEMP:  14; 6HR PCP: TRACE;

FORT DODGE *   CLOUDY    14   7  73 NW5       30.42R WCI   6
MASON CITY     CLOUDY    13   9  84 NW20      30.37R WCI  -5
6HR MIN TEMP:  13; 6HR MAX TEMP:  24; 6HR PCP: TRACE;

FOREST CITY *  FLURRIES  12   9  85 NW13      30.38R WCI  -3
IOWA FALLS *   CLOUDY    18  14  86 NW14      30.36R WCI   4
$$

IAZ007>011-017>019-026>030-037>042-050>054-066-270700-
   NORTHEAST IOWA

CITY           SKY/WX    TMP DP  RH WIND       PRES   REMARKS
CEDAR RAPIDS   CLOUDY    25  22  88 NW13      30.29R WCI  14
6HR MIN TEMP:  25; 6HR MAX TEMP:  28; 6HR PCP: TRACE;

CHARLES CITY * CLOUDY    21  16  79 NW14      30.33R WCI   8
CLINTON *      PTCLDY    18  12  79 N7        30.28S WCI   8
DECORAH *      CLOUDY    23  18  80 NW13      30.28R WCI  11
DUBUQUE        CLOUDY    23  21  92 NW10      30.26R WCI  12
6HR MIN TEMP:  22; 6HR MAX TEMP:  25;

MONTICELLO *   CLOUDY    25  23  93 NW9       30.28R WCI  15
OELWEIN *      CLOUDY    25  19  80 NW16      30.30R WCI  12
WATERLOO       CLOUDY    24  20  84 N18       30.32R WCI  10
6HR MIN TEMP:  24; 6HR MAX TEMP:  27; 6HR PCP:  0.01;

$$

IAZ064-065-067-068-078-270700-
   EAST CENTRAL IOWA

CITY           SKY/WX    TMP DP  RH WIND       PRES   REMARKS
DAVENPORT      CLEAR     19  15  84 NW7       30.27R WCI  10
6HR MIN TEMP:  19; 6HR MAX TEMP:  27;

IOWA CITY      CLOUDY    27  24  89 NW8       30.32R FOG     WCI  19
6HR MIN TEMP:  26; 6HR MAX TEMP:  29; 6HR PCP: TRACE;

MT. PLEASANT * CLOUDY    25  25  99 NW7       30.31R FOG     WCI  17
MUSCATINE *    CLOUDY    25  23  93 NW10      30.31R FOG     WCI  15
QUAD CITIES    PTCLDY    24  18  77 NW6       30.27R WCI  17
6HR MIN TEMP:  24; 6HR MAX TEMP:  28; 6HR PCP: TRACE;

$$

IAZ062-063-075>077-085>089-095>099-270700-
   SOUTHEAST IOWA

CITY           SKY/WX    TMP DP  RH WIND       PRES   REMARKS
BURLINGTON     PTCLDY    24  22  91 NW6       30.28R FOG     WCI  17
6HR MIN TEMP:  24; 6HR MAX TEMP:  30; 6HR PCP: TRACE;

FAIRFIELD *    MIX PCPN  27  25  93 NW10      30.32R WCI  17
FORT MADISON * CLOUDY    27  25  93 NW5       30.30R FOG     WCI  21
KEOKUK *       CLOUDY    27  25  93 NW7       30.30R FOG     WCI  19
OSKALOOSA *    CLOUDY    27  24  91 N15       30.33R WCI  15
CENTERVILLE *  MIX PCPN  28  28 100 NW10      30.33R WCI  19
OTTUMWA        LGT SNOW  27  24  89 NW17      30.32R FOG     WCI  14
6HR MIN TEMP:  27; 6HR MAX TEMP:  29; 6HR PCP:  0.01;

WASHINGTON *   CLOUDY    27  27 100 NW12      30.31R FOG     WCI  16
$$

ABBREVIATIONS USED IN REMARKS
   TC - TEMPERATURES IN CELSIUS
  WCI - WIND CHILL INDEX
   HX - HEAT INDEX
  VSB - VISIBILITY
$$




USA.gov is the U.S. government's official web portal to all federal, state and local government web resources and services.